Home > Time Zones > World Clock > Weather > U.S.A. > Reno > Past weeks

Flag Weather past 2 weeks in Reno, Nevada, U.S.A.

Now
34 °F

Clear.


Feels Like: 31 °F
Forecast: 29 / 47 °F
Wind: 3 mph from Southwest

Location: Reno Tahoe International Airport

Current Time: Nov 23, 2014 at 3:28:36 AM

Latest Report: Nov 23, 2014 at 2:55 AM


Visibility: 10 mi

Pressure: 30.30 "Hg

Humidity: 73%

Dew point: 26 °F

Location of RenoLocation

Historic Weather in Reno — Graph

°F

Reno temperature yesterday

Maximum temperature yesterday: 60 °F (at 9:55 AM)
Minimum temperature yesterday: 38 °F (at 10:55 PM)
Average temperature yesterday: 51 °F

Past Weeks' High & Low Weather Summary

 TemperatureHumidityPressure
High75 °F (Nov 9, 3:55 PM)97% (Nov 20, 11:55 PM)30.52 "Hg (Nov 20, 11:55 PM)
Low20 °F (Nov 17, 3:55 AM)17% (Nov 9, 3:55 PM)29.80 "Hg (Nov 10, 2:55 AM)
Average44 °F54%30.08 "Hg
* Reported Nov 8 1:55 AM — Nov 23 1:55 AM, Reno, Weather by CustomWeather, © 2014

Note: Actual official high and low records may vary slightly from our data, if they occured in-between our weather recording intervals... More about our weather records

Advertising

Reno weather history for previous 24 hours

 ConditionsComfort  
Time TempWeatherWind HumidityBarometerVisibility
1:55 AM
Nov 23
35 °FPassing clouds.3 mph72%30.28 "Hg10 mi
12:55 AM38 °FPassing clouds.8 mph68%30.24 "Hg10 mi
11:55 PM
Nov 22
39 °FPartly cloudy.No wind67%30.23 "Hg10 mi
10:55 PM38 °FPassing clouds.No wind68%30.21 "Hg10 mi
9:55 PM39 °FPassing clouds.6 mph62%30.17 "Hg10 mi
8:55 PM41 °FPartly cloudy.7 mph60%30.16 "Hg10 mi
7:55 PM45 °FPassing clouds.9 mph49%30.13 "Hg10 mi
6:55 PM46 °FPartly cloudy.10 mph48%30.09 "Hg10 mi
5:55 PM48 °FOvercast.16 mph44%30.06 "Hg10 mi
4:55 PM50 °FPartly cloudy.15 mph44%30.02 "Hg10 mi
3:55 PM51 °FPartly sunny.21 mph50%29.98 "Hg10 mi
2:55 PM56 °FBroken clouds.18 mph40%29.92 "Hg10 mi
1:55 PM58 °FPartly sunny.18 mph43%29.90 "Hg10 mi
12:55 PM60 °FBroken clouds.29 mph38%29.85 "Hg10 mi
11:55 AM59 °FBroken clouds.22 mph41%29.85 "Hg10 mi
10:55 AM59 °FBroken clouds.28 mph48%29.86 "Hg10 mi
9:55 AM60 °FBroken clouds.23 mph47%29.85 "Hg10 mi
8:55 AM57 °FBroken clouds.13 mph60%29.85 "Hg10 mi
7:55 AM52 °FLight rain. Broken clouds.No wind72%29.86 "Hg9 mi
6:55 AM53 °FBroken clouds.3 mph66%29.85 "Hg10 mi
5:55 AM52 °FLight rain. Passing clouds.8 mph66%29.85 "Hg10 mi
4:55 AM54 °FPassing clouds.10 mph59%29.84 "Hg10 mi
3:55 AM54 °FPassing clouds.26 mph59%29.84 "Hg10 mi
Weather by CustomWeather, © 2014

See weather overviewHow to use our weather pages